Montreal Mirabel, Quebec

3:58 AM EDT on July 24, 2016 (GMT -0400)
Montreal International (Mirabel)

Weather History for CYMX - October, 2011

Change the Weather History Date:

Saturday, October 8, 2011

  Actual Average Record
Temperature  
Mean Temperature 62 °F -  
Max Temperature 73 °F 56 °F 75 °F (2004)
Min Temperature 50 °F 38 °F 30 °F (1999)
Degree Days  
Heating Degree Days 4    
Growing Degree Days 12 (Base 50)    
Moisture  
Dew Point 51 °F    
Average Humidity 71    
Maximum Humidity 87    
Minimum Humidity 50    
Precipitation  
Precipitation 0.00 in - - ()
Sea Level Pressure  
Sea Level Pressure 30.35 in    
Wind  
Wind Speed 6 mph ()    
Max Wind Speed 9 mph    
Max Gust Speed 17 mph    
Averages and records for this station are not official NWS values.
T = Trace of Precipitation, MM = Missing Value Source: Averaged Metar Reports

Daily Weather History Graph

Daily Weather History Graph

Search for Another Location

Airport or City:

Trip Planner

Search our weather history database for the weather conditions in past years. The results will help you decide how hot, cold, wet, or windy it might be!

Date:

Astronomy

Oct. 08, 2011 Rise Set
Actual Time 7:03 AM EDT 6:23 PM EDT
Civil Twilight 6:33 AM EDT 6:53 PM EDT
Nautical Twilight 5:58 AM EDT 7:27 PM EDT
Astronomical Twilight 5:24 AM EDT 8:02 PM EDT
Moon 4:39 PM EDT (10/8) 3:39 AM EDT (10/8)
Length of Visible Light 12h 20m
Length of Day
11h 20m
Waxing Gibbous, 90% of the Moon is Illuminated
Oct 8
Waxing Gibbous
Oct 11
Full
Oct 19
Last Quarter
Oct 26
New
Nov 2
First Quarter

Hourly Weather History & Observations

Time (EDT) Temp. Dew Point Humidity Pressure Visibility Wind Dir Wind Speed Gust Speed Precip Events Conditions
12:00 AM 53.6 °F 46.4 °F 77% 30.35 in 25.0 mi SW 6.9 mph - N/A   Clear
1:00 AM 51.8 °F 46.4 °F 82% 30.35 in 25.0 mi WSW 5.8 mph - N/A   Clear
2:00 AM 51.8 °F 46.4 °F 82% 30.35 in 25.0 mi SW 5.8 mph - N/A   Clear
3:00 AM 51.8 °F 46.4 °F 82% 30.34 in 25.0 mi WSW 8.1 mph - N/A   Clear
4:00 AM 51.8 °F 46.4 °F 82% 30.34 in 25.0 mi WSW 6.9 mph 17.3 mph N/A   Clear
5:00 AM 50.0 °F 46.4 °F 87% 30.35 in 25.0 mi WSW 8.1 mph - N/A   Clear
6:00 AM 50.0 °F 46.4 °F 87% 30.37 in 25.0 mi SW 8.1 mph - N/A   Clear
7:00 AM 50.0 °F 46.4 °F 87% 30.38 in 25.0 mi WSW 6.9 mph - N/A   Partly Cloudy
8:00 AM 51.8 °F 46.4 °F 82% 30.40 in 25.0 mi WSW 6.9 mph - N/A   Partly Cloudy
9:00 AM 55.4 °F 48.2 °F 77% 30.41 in 25.0 mi West 9.2 mph - N/A   Partly Cloudy
10:00 AM 59.0 °F 50.0 °F 72% 30.42 in 25.0 mi WSW 9.2 mph - N/A   Partly Cloudy
11:00 AM 62.6 °F 51.8 °F 68% 30.40 in 25.0 mi SW 9.2 mph - N/A   Partly Cloudy
12:00 PM 66.2 °F 53.6 °F 64% 30.38 in 25.0 mi SW 6.9 mph - N/A   Partly Cloudy
1:00 PM 69.8 °F 55.4 °F 60% 30.36 in 40.0 mi SW 6.9 mph - N/A   Scattered Clouds
2:00 PM 73.4 °F 53.6 °F 50% 30.34 in 35.0 mi WSW 9.2 mph - N/A   Scattered Clouds
3:00 PM 73.4 °F 55.4 °F 53% 30.33 in 35.0 mi WSW 8.1 mph - N/A   Partly Cloudy
4:00 PM 73.4 °F 53.6 °F 50% 30.31 in 40.0 mi WSW 5.8 mph 17.3 mph N/A   Mostly Cloudy
5:00 PM 73.4 °F 55.4 °F 53% 30.30 in 40.0 mi SW 8.1 mph - N/A   Mostly Cloudy
6:00 PM 69.8 °F 53.6 °F 56% 30.30 in 25.0 mi SW 9.2 mph - N/A   Mostly Cloudy
7:00 PM 64.4 °F 53.6 °F 68% 30.31 in 25.0 mi SW 5.8 mph - N/A   Mostly Cloudy
8:00 PM 64.4 °F 53.6 °F 68% 30.31 in 25.0 mi SW 9.2 mph - N/A   Partly Cloudy
9:00 PM 62.6 °F 53.6 °F 72% 30.32 in 25.0 mi WSW 6.9 mph - N/A   Clear
10:00 PM 60.8 °F 53.6 °F 77% 30.32 in 25.0 mi WSW 4.6 mph - N/A   Clear
11:00 PM 60.8 °F 53.6 °F 77% 30.32 in 25.0 mi WSW 6.9 mph - N/A   Clear